Wind_Speed
16 16 15 13 12 12 12 11 11 10 10 8 8 8 8 9 11 11 11 12 13 12 12 12 12 13 13 13 12 12 12 12 10 10 9 9 10 10 10 10 9 8 9 11 11 10 11 10 10 12 13 13 13 14 15 15 15 16 16 17 18 20 21 22 24 26 27 28 29 29 30 30 30 30 30 30 30 30 30 30 30 30 30 30 31 32
19 18 17 16 14 13 12 12 11 10 10 9 7 6 6 7 8 8 9 9 11 11 11 10 8 9 10 10 10 10 9 9 9 9 8 7 8 8 8 10 9 8 8 9 9 10 10 10 10 12 13 13 13 14 15 16 15 15 15 16 18 20 22 23 25 26 28 29 30 30 30 31 31 32 32 32 31 32 32 32 33 33 33 33 33 33
21 20 19 18 17 15 13 12 12 11 10 9 8 7 6 4 5 5 6 7 8 8 9 10 8 7 7 6 8 10 9 8 7 7 7 7 8 8 8 9 9 9 9 9 9 9 10 11 11 12 13 13 13 14 16 18 18 17 16 16 17 20 23 24 25 26 28 29 30 31 31 32 33 33 34 34 34 34 34 34 35 35 35 35 35 34
24 22 21 20 19 18 16 14 13 13 11 10 9 8 8 6 4 3 4 4 5 6 6 7 8 6 6 5 5 7 8 8 8 7 7 7 8 9 9 9 9 10 11 11 10 10 10 11 11 13 15 13 13 14 16 19 20 20 19 17 17 20 23 26 26 26 27 29 30 31 33 34 34 35 36 36 36 37 37 37 37 37 37 37 36 36
26 24 24 22 21 20 19 17 16 15 13 12 11 10 9 9 7 5 3 3 3 4 5 5 5 5 6 6 5 6 6 7 7 7 7 7 8 9 10 10 10 11 13 13 12 11 12 13 13 15 17 16 16 16 18 21 22 21 21 19 18 20 24 27 27 26 28 30 31 32 33 35 35 36 37 38 38 39 39 39 40 40 40 39 39 38
28 27 26 24 23 22 21 20 19 18 16 14 13 12 11 10 10 9 7 5 3 3 3 4 4 3 4 5 5 6 6 6 6 6 7 8 9 9 10 12 11 11 13 13 13 13 14 13 14 16 17 16 16 17 19 23 24 21 20 19 18 21 25 28 28 27 28 31 32 32 33 35 36 36 37 38 39 40 41 41 42 42 43 43 42 41
30 30 29 27 24 23 23 23 22 21 18 17 16 14 13 12 11 11 11 8 7 6 5 5 6 5 4 5 5 5 6 6 6 6 6 8 9 9 10 11 12 11 12 13 13 13 14 13 14 16 16 15 16 18 20 23 24 22 19 16 17 23 28 30 29 28 29 31 32 32 33 35 36 37 38 38 40 41 42 43 44 46 47 47 47 46
35 33 31 28 26 25 25 25 25 24 21 20 19 17 16 15 13 13 13 12 10 9 8 7 7 8 7 6 6 6 6 6 6 6 6 8 9 10 11 11 12 12 13 14 13 13 14 14 15 16 16 17 19 20 22 24 24 24 21 18 20 25 31 32 31 30 30 32 33 34 35 36 37 39 39 40 41 43 44 44 46 47 49 51 51 50
38 35 33 31 28 28 27 27 27 27 25 23 22 20 19 17 16 15 14 14 13 12 11 9 8 9 10 10 10 9 9 8 7 7 7 8 9 10 11 12 13 14 15 15 15 14 15 16 16 17 18 19 21 22 24 24 24 24 23 22 24 28 31 33 33 33 33 34 36 37 37 38 39 40 41 41 42 45 47 47 49 50 51 53 53 53
40 37 36 33 30 30 30 29 29 29 28 26 24 24 22 20 19 18 17 16 15 15 13 10 9 9 10 12 12 12 13 11 11 10 9 10 11 11 12 13 15 16 17 17 17 16 16 17 18 18 18 20 23 23 24 25 25 25 25 25 28 30 32 35 35 36 36 36 38 39 40 40 41 42 44 43 41 44 48 49 51 53 54 55 56 56
42 40 38 35 34 34 34 32 31 31 29 27 27 28 25 23 23 21 20 19 18 18 16 13 12 10 10 12 13 14 15 14 14 14 13 12 12 13 13 14 16 18 18 18 19 19 18 18 19 20 20 22 24 25 26 27 27 27 27 29 30 32 34 36 38 38 38 38 40 41 42 43 44 45 47 46 42 44 48 51 53 55 56 57 58 58
44 43 40 39 39 38 37 35 33 33 31 29 30 31 28 26 26 25 23 22 21 21 19 16 15 14 13 13 13 15 16 16 16 16 16 15 14 14 14 14 18 20 20 20 21 21 20 20 22 24 24 24 25 27 28 29 30 30 31 31 32 34 36 38 39 40 41 41 42 44 46 47 47 48 49 49 46 45 48 51 55 58 59 59 60 61
48 46 44 43 42 41 40 37 36 35 32 31 33 33 31 29 29 29 27 25 25 24 23 21 18 17 16 15 15 16 17 18 19 19 19 19 18 16 14 14 17 21 23 22 23 25 23 22 23 26 27 26 26 28 31 31 32 33 34 34 34 35 37 38 40 42 44 45 45 47 50 50 51 51 51 53 52 49 47 49 55 60 62 62 63 64
51 48 45 43 43 44 43 40 39 38 35 34 35 34 34 32 31 31 31 30 28 27 27 25 22 21 20 18 18 18 18 19 21 22 24 25 24 20 18 17 17 21 25 25 24 26 28 27 26 28 29 28 28 31 34 34 34 35 37 37 37 37 38 39 42 44 46 48 49 50 52 53 54 54 54 56 56 53 49 47 53 61 64 65 65 66
52 48 45 44 45 47 46 43 41 41 38 36 36 36 36 36 34 33 33 32 32 31 31 29 27 25 24 22 21 20 20 21 21 23 24 27 30 27 23 21 21 22 24 26 27 28 30 30 30 30 30 30 32 34 36 37 37 38 39 39 38 38 39 41 43 46 48 50 51 52 53 55 56 56 56 58 59 56 51 47 52 61 64 67 68 68
51 49 47 45 48 50 47 45 44 44 41 38 37 38 39 39 38 35 34 34 34 34 34 33 32 30 27 26 26 23 23 24 24 24 24 26 31 32 29 27 26 25 25 27 29 29 31 32 33 33 33 33 35 37 38 38 38 39 40 41 40 38 40 43 45 48 50 52 52 53 55 56 57 57 57 59 59 55 49 47 53 61 64 67 70 71
54 53 50 46 51 52 48 48 49 46 43 40 39 41 42 41 39 38 37 37 37 36 36 37 36 33 31 30 31 27 25 28 28 27 27 27 29 32 33 32 30 29 29 29 31 32 32 33 35 35 35 36 38 39 39 40 40 41 42 42 41 40 43 47 48 49 52 55 54 54 56 57 58 58 58 59 57 52 49 50 55 61 64 67 71 73
57 57 52 49 54 54 49 53 53 47 44 42 41 44 44 42 40 41 41 39 39 39 39 39 38 36 34 33 34 32 30 32 33 32 31 30 29 31 33 34 34 32 32 33 33 34 34 35 36 37 37 38 39 40 41 42 43 43 43 42 42 43 47 49 49 51 55 57 56 56 57 57 57 59 60 59 56 52 51 54 58 62 64 67 72 74
59 59 55 52 56 56 52 56 54 46 44 43 44 46 46 43 43 43 42 42 42 42 41 42 41 39 38 35 35 35 34 36 37 38 37 34 32 31 32 34 35 34 34 34 35 36 36 37 38 38 39 39 40 41 42 44 44 44 44 44 45 47 48 49 50 53 56 58 58 58 58 58 59 60 61 60 55 51 50 54 59 63 65 68 72 73
61 61 60 56 58 58 54 55 53 46 44 46 46 48 47 45 46 45 45 45 45 44 43 44 44 42 40 38 36 36 36 37 40 42 42 40 38 35 33 35 37 36 35 35 36 37 38 39 39 39 40 40 41 42 43 45 45 46 46 47 48 50 50 51 53 55 57 57 58 59 58 59 61 62 63 62 54 48 48 53 59 64 67 69 71 73
63 64 65 62 60 59 54 53 53 49 47 48 49 49 48 48 49 49 48 46 46 46 45 46 47 44 41 40 39 38 39 40 42 42 42 43 44 41 38 39 40 39 38 37 38 39 40 41 41 41 42 42 43 43 44 46 47 47 48 49 50 51 52 54 55 58 58 57 59 59 57 60 63 63 65 62 53 45 46 52 57 64 69 70 72 76
65 66 70 68 62 57 54 53 55 54 52 51 52 50 49 51 52 52 50 47 47 48 47 49 49 45 42 41 41 42 43 44 44 43 42 43 45 46 43 41 42 42 41 39 39 41 42 42 43 44 44 44 45 45 46 47 48 49 50 51 52 53 54 56 57 59 58 57 60 58 55 61 65 65 67 61 50 45 47 53 59 64 70 72 75 78
68 69 73 73 65 56 54 56 58 59 57 54 53 52 51 52 53 53 52 49 49 50 50 52 51 46 43 44 44 45 47 47 46 45 45 44 45 46 47 44 43 43 43 42 42 43 44 45 46 46 45 46 47 48 48 48 50 51 51 52 53 54 56 58 60 62 60 60 60 55 56 64 67 68 67 58 48 45 49 57 61 64 70 75 77 78
72 72 74 75 69 61 60 61 60 61 60 56 53 53 53 53 52 53 54 53 53 53 52 54 53 48 46 46 46 48 50 50 48 47 46 46 44 45 48 48 46 44 45 46 45 46 47 47 48 48 47 48 49 49 50 51 51 52 53 53 54 56 59 61 63 64 62 59 54 52 59 68 69 69 64 52 46 47 52 61 64 64 70 77 79 79
74 75 75 77 75 67 63 62 59 59 60 58 56 55 54 55 53 54 58 58 56 54 54 56 55 51 49 48 48 52 54 53 51 48 47 47 45 46 49 49 48 47 46 46 47 48 49 49 50 50 49 49 50 51 52 53 53 54 54 54 55 57 60 62 65 66 61 54 51 56 65 70 70 65 56 47 46 49 56 65 66 66 71 78 82 81
76 79 78 78 78 71 64 63 62 60 59 58 58 59 58 57 56 57 61 61 58 56 56 58 57 53 51 51 52 54 56 57 55 50 47 47 47 48 50 49 48 49 48 47 47 48 49 50 51 51 51 51 51 51 53 54 54 55 55 55 56 58 61 63 66 66 59 53 57 63 67 68 64 55 47 45 48 53 62 68 67 68 73 79 84 85
79 81 81 80 80 74 67 65 66 63 61 59 59 62 62 60 59 61 63 63 60 58 57 58 58 55 53 54 55 56 57 59 58 53 50 49 49 51 53 52 49 49 50 50 49 48 48 50 51 51 51 52 52 52 53 54 55 55 55 55 56 58 61 63 65 65 60 59 64 66 65 66 61 50 45 48 52 58 66 69 69 73 77 81 86 88
81 82 82 81 80 76 71 69 68 66 64 61 60 62 63 63 62 62 63 63 63 61 59 59 60 58 55 56 58 59 60 60 59 57 54 53 52 53 53 53 51 50 51 51 51 50 49 49 51 52 53 53 53 53 53 53 54 56 55 56 58 59 60 62 65 66 63 63 64 62 65 67 59 50 48 51 56 62 67 70 72 76 81 84 87 89
82 82 81 81 80 78 74 73 71 68 66 64 63 63 64 64 64 64 64 64 64 63 63 63 63 60 57 58 60 61 62 62 59 58 55 55 57 57 54 53 53 53 53 53 53 53 51 50 51 52 54 55 54 54 54 54 54 55 56 58 59 59 59 61 64 64 61 60 59 60 66 67 58 51 51 55 61 67 71 74 76 82 87 89 89 90
82 82 80 80 80 79 77 75 73 70 69 68 66 66 67 67 66 66 66 66 66 66 66 67 66 63 60 61 62 63 64 63 61 58 56 56 59 61 58 55 54 54 54 54 54 55 54 52 52 53 54 57 57 56 55 54 54 56 57 58 56 57 59 60 59 59 58 57 59 63 66 63 54 50 53 60 67 73 78 81 85 90 93 91 90 91
82 81 80 80 80 79 78 76 74 73 72 71 69 69 71 70 69 68 66 67 69 69 70 70 69 66 64 63 64 65 64 62 60 59 58 58 61 63 62 59 56 56 56 54 54 55 55 54 54 55 55 57 59 58 57 56 56 57 55 53 53 55 58 58 56 55 56 60 64 64 57 51 50 53 59 66 72 78 83 87 89 91 90 88 90 92
80 79 79 79 78 78 75 74 74 74 74 74 73 74 74 73 72 70 68 70 72 72 74 74 71 68 67 67 67 66 63 60 59 59 60 62 64 64 63 61 59 59 59 57 54 54 55 56 57 56 55 57 59 59 58 58 58 56 51 50 54 57 58 58 58 57 58 60 58 54 51 53 59 64 68 71 75 81 85 86 86 86 86 87 89 91
79 78 78 78 77 75 72 73 75 77 78 78 77 77 77 77 76 74 73 73 75 76 78 77 74 71 70 71 70 67 63 60 59 59 60 63 66 64 63 63 61 61 62 60 57 55 54 56 58 58 57 56 58 59 59 59 59 58 54 55 60 59 53 52 55 56 55 51 47 49 56 62 67 70 74 75 78 83 86 85 84 85 86 88 90 92
78 76 77 78 76 74 73 75 79 81 81 79 77 78 80 80 77 75 76 77 79 80 80 78 76 74 74 74 72 67 63 62 62 62 62 64 65 64 63 63 62 62 62 61 60 58 55 55 58 59 58 57 57 59 60 60 60 61 59 59 60 55 48 50 56 54 48 45 50 56 59 64 69 74 77 79 82 87 88 85 85 86 89 90 91 94
79 77 77 78 78 76 76 79 82 81 79 76 75 78 80 79 77 77 80 82 82 81 81 80 79 78 78 76 72 68 66 66 66 65 65 66 67 66 64 63 63 64 63 62 61 60 57 56 57 58 58 57 57 58 60 61 64 65 62 58 54 49 47 52 54 47 42 47 57 62 64 69 73 76 79 82 87 89 88 86 87 90 92 92 92 96
80 79 79 80 80 78 79 81 82 79 76 75 76 79 80 79 80 82 85 85 84 83 83 82 81 80 78 76 73 71 71 71 69 67 66 69 72 69 64 64 66 66 63 62 62 61 59 58 58 58 58 56 56 58 60 62 67 67 63 59 55 51 51 51 45 41 44 49 55 61 66 69 72 77 83 87 88 88 86 86 89 93 95 93 94 100
83 82 82 82 81 80 80 83 83 79 77 75 76 79 80 80 82 86 87 86 85 85 85 84 82 79 78 77 74 73 73 73 72 70 70 74 75 71 67 67 68 66 64 63 63 63 61 60 59 58 57 55 55 55 55 58 61 62 61 60 55 52 54 52 46 47 50 52 56 62 67 70 75 83 86 87 88 88 87 88 91 95 95 94 97 103
85 85 84 84 83 82 83 85 84 81 78 76 77 80 80 80 84 88 87 84 83 85 87 87 84 81 79 78 76 75 74 74 74 74 75 77 76 72 70 69 68 68 68 67 65 64 63 62 60 59 56 53 48 44 46 53 57 58 58 56 50 48 51 52 53 58 62 66 71 74 76 80 84 86 85 87 89 89 88 91 95 95 95 96 102 107
85 85 85 86 86 85 85 86 85 82 78 77 78 80 80 80 83 87 86 84 82 84 86 87 85 82 80 79 78 77 75 74 76 77 77 77 75 73 71 70 68 69 70 70 68 66 64 63 62 59 57 53 45 38 40 48 53 53 52 49 46 46 47 48 53 61 68 75 79 82 83 85 85 83 84 88 88 88 90 94 96 95 95 100 106 109
85 85 85 87 86 85 85 85 84 82 80 78 79 79 79 80 83 84 83 81 80 82 85 86 86 85 84 82 81 79 77 77 79 79 79 77 76 74 74 72 69 68 69 70 69 67 65 65 64 62 60 58 52 45 45 51 55 54 51 49 49 49 50 53 58 61 66 71 74 77 80 82 82 83 87 88 87 89 94 96 95 95 98 104 109 109
86 85 85 85 86 86 85 84 84 83 82 80 80 80 81 81 82 82 80 78 78 81 84 85 85 85 85 84 83 80 79 78 77 76 77 78 76 75 76 75 71 68 68 69 70 68 67 67 66 64 63 61 57 52 50 54 60 63 63 64 64 63 66 70 70 70 71 73 74 77 82 84 86 89 88 85 86 92 96 95 95 97 102 107 108 107
86 86 86 86 86 85 85 85 84 83 83 81 78 77 78 80 81 81 79 79 80 81 81 81 81 82 82 83 82 79 77 76 75 75 76 77 77 76 77 76 72 68 67 67 68 68 67 67 67 66 65 64 62 60 58 58 62 66 68 71 73 74 76 77 74 73 76 79 82 87 89 89 90 90 86 85 91 97 95 94 97 101 105 108 107 106
86 86 86 86 85 84 84 85 84 84 84 81 78 76 78 79 79 80 80 79 81 82 81 80 81 79 78 78 77 76 76 77 78 79 78 78 77 76 74 73 71 69 68 67 67 68 69 68 66 64 65 65 65 65 64 63 64 67 70 73 75 76 78 79 78 79 84 88 91 92 91 90 91 89 87 90 97 97 94 96 101 104 106 107 107 107
84 84 84 84 85 85 85 86 86 86 84 83 82 81 80 79 77 78 79 74 71 74 76 76 77 76 76 76 76 77 78 80 81 81 79 78 77 74 72 72 72 72 71 71 70 70 69 67 65 63 64 67 68 67 66 66 67 69 72 75 77 78 80 82 84 87 90 91 91 91 91 91 91 89 91 96 98 97 97 100 103 105 106 105 105 107
82 83 83 82 82 84 86 86 85 81 79 81 83 83 81 78 75 76 77 72 67 69 72 72 74 76 78 80 81 81 82 82 81 80 78 76 75 76 75 75 75 74 75 75 73 71 69 68 67 67 68 69 69 68 69 71 72 72 73 75 78 81 83 85 87 88 87 86 86 88 89 89 89 91 95 99 99 98 100 103 105 107 106 104 104 106
82 83 84 82 80 81 83 84 84 81 76 77 83 84 82 79 77 76 78 78 78 78 77 76 77 79 80 81 83 83 82 81 80 79 79 78 78 80 80 79 77 76 75 76 75 74 72 71 70 70 70 71 71 73 75 75 73 73 74 76 79 80 82 83 85 84 81 79 80 82 84 87 91 96 99 99 99 100 103 105 107 107 105 104 105 106
82 83 83 82 79 73 69 70 76 79 75 73 77 80 80 79 79 79 80 81 83 84 83 83 83 82 82 83 83 82 82 81 80 80 81 79 78 79 80 80 79 79 79 79 79 78 76 75 73 72 71 71 72 75 75 74 73 72 73 74 76 77 78 80 82 82 79 78 80 83 87 92 97 99 99 99 101 103 106 107 106 105 104 105 105 104
83 83 83 83 82 77 72 69 71 73 72 72 74 76 76 76 77 79 79 80 81 83 84 85 84 82 81 81 81 80 80 80 79 79 78 78 77 78 80 81 81 82 82 82 82 80 77 75 72 70 69 69 70 71 71 71 71 70 69 70 72 73 75 78 82 83 82 82 84 88 93 96 98 99 100 102 104 106 107 105 104 103 103 104 103 101
83 83 83 82 83 83 83 82 79 76 75 75 76 75 74 73 74 76 77 78 78 78 80 81 81 81 81 80 80 81 82 81 80 79 79 79 80 81 81 82 81 81 81 80 79 77 75 72 71 71 71 71 72 72 72 71 69 68 71 75 77 78 79 81 83 83 82 84 88 93 95 97 98 99 101 104 106 106 104 101 100 101 101 101 99 95
83 83 83 83 84 84 84 84 82 79 76 75 76 77 76 75 75 76 77 78 78 79 79 80 80 79 80 80 80 81 81 81 80 79 78 79 80 80 80 80 79 78 77 77 76 76 76 76 76 76 76 76 76 77 76 75 72 72 74 76 75 75 77 78 79 81 85 89 93 95 96 96 97 99 102 104 103 100 98 97 97 98 97 95 91 88
82 82 81 81 83 83 82 81 80 79 76 75 76 79 80 79 78 78 76 75 76 78 80 81 81 81 82 81 79 78 79 80 80 79 78 78 79 79 79 78 77 77 77 78 79 79 79 79 78 77 76 76 76 76 76 74 72 71 73 74 74 76 79 82 85 90 94 96 95 95 95 96 99 102 103 100 95 92 93 94 94 93 91 89 88 89
Wind_Direction
291 299 305 311 319 326 331 331 334 337 341 349 359 14 29 39 43 46 49 54 57 60 67 74 79 79 74 71 70 69 71 74 71 65 66 70 64 49 39 35 29 21 15 16 17 15 16 19 24 27 26 24 23 24 24 23 22 19 16 14 13 12 11 11 10 9 8 6 5 4 1 359 358 357 357 355 353 351 349 345 341 336 330 324 317 311
283 289 295 300 305 310 317 322 323 325 329 333 336 348 8 27 36 37 39 46 50 50 51 56 69 73 65 66 66 60 55 55 58 58 55 56 52 43 33 25 17 8 359 356 360 359 0 360 0 7 10 12 14 14 14 12 10 8 7 8 10 10 9 7 7 6 4 3 2 1 359 358 356 356 356 355 354 353 352 350 348 346 341 336 330 324
276 280 286 291 295 298 303 310 313 314 317 320 321 321 326 351 23 30 29 36 41 42 42 45 57 59 48 57 66 57 46 34 32 38 38 37 37 35 25 11 6 4 356 347 341 336 343 349 350 353 353 356 4 6 4 4 3 0 357 0 8 12 10 7 5 3 1 360 358 357 356 356 355 355 355 354 353 353 352 351 350 349 347 343 339 333
270 275 279 283 287 290 293 298 303 304 306 308 310 308 304 306 322 356 11 21 29 30 30 40 53 48 32 38 51 50 44 32 22 24 28 30 30 29 24 11 3 4 1 350 337 328 329 330 334 345 346 340 339 343 349 353 357 359 356 351 355 2 3 1 0 360 359 357 356 354 353 353 353 353 353 353 353 353 352 352 351 350 348 346 343 339
265 269 273 276 281 284 287 290 293 296 298 300 301 301 298 293 293 293 304 336 1 11 9 18 38 36 25 25 25 27 30 25 14 11 14 13 10 12 15 13 8 4 2 355 345 340 337 331 331 339 344 340 330 327 329 334 340 350 356 351 345 347 349 348 349 352 355 356 354 353 351 351 351 351 351 352 353 353 353 352 351 350 349 347 345 342
262 266 268 271 274 278 281 283 286 288 291 295 293 294 294 290 288 284 278 276 284 313 334 337 348 5 13 11 11 13 11 10 6 3 0 358 356 358 2 6 6 3 1 358 354 350 344 338 337 340 342 341 337 329 326 327 329 333 345 356 356 353 350 347 343 344 348 351 351 351 349 348 348 349 350 351 352 352 353 352 351 350 349 348 346 344
260 261 263 266 269 273 276 277 279 281 284 288 287 287 290 289 289 285 281 276 270 270 279 302 315 324 335 343 345 349 352 353 356 356 350 347 349 347 348 353 354 353 352 351 351 351 350 342 335 337 339 339 339 337 336 336 334 328 328 342 352 352 351 350 346 341 340 343 345 347 347 346 345 346 347 349 351 351 351 351 351 350 349 348 347 345
257 258 260 263 266 268 270 272 273 275 277 280 282 285 286 287 287 285 284 283 280 275 272 277 293 303 309 311 315 318 322 329 335 343 338 333 339 337 335 338 339 338 339 339 339 340 347 345 336 332 332 334 336 339 343 344 342 336 325 319 325 336 343 345 345 341 339 339 341 344 345 345 344 344 344 344 346 349 349 350 350 350 349 348 347 346
254 256 259 260 263 266 267 267 268 270 271 273 278 281 281 282 284 282 281 279 277 275 272 270 275 288 297 298 300 300 301 307 309 316 319 319 325 328 326 326 328 329 329 330 330 329 334 338 336 331 327 329 332 335 341 343 344 344 338 328 325 331 337 341 342 340 339 340 341 342 343 343 343 343 342 340 341 345 347 348 349 349 349 349 348 346
254 256 257 258 261 263 263 263 264 265 267 269 273 275 276 278 279 279 279 277 275 273 270 271 271 277 291 295 296 299 299 301 301 303 307 309 313 316 318 318 319 322 324 324 322 321 325 329 330 329 326 327 330 333 338 340 340 342 342 338 335 334 335 338 339 339 338 339 340 341 341 341 341 340 341 339 339 343 345 346 347 348 348 349 348 347
254 255 256 258 258 259 260 261 261 262 263 265 268 270 272 275 277 277 278 279 278 276 273 273 272 271 280 287 293 298 298 300 300 300 299 298 301 305 310 314 314 315 318 320 318 315 318 321 323 325 326 326 328 329 333 335 335 336 338 337 336 334 334 336 337 337 338 337 337 339 339 339 339 339 340 340 339 341 345 346 347 347 348 348 348 347
254 254 254 255 255 256 257 258 260 261 262 263 263 265 267 270 274 275 275 276 278 278 276 273 272 271 273 277 286 292 293 296 296 295 295 292 290 294 301 310 312 311 312 316 318 315 316 316 314 317 321 323 325 325 326 329 330 329 331 333 334 333 333 334 335 336 337 336 335 336 338 338 338 338 339 339 336 335 339 344 347 347 347 347 346 345
251 250 250 251 253 255 256 257 259 260 260 260 260 262 264 266 268 272 274 274 275 276 277 274 273 273 273 274 280 285 289 294 295 295 296 295 293 294 298 304 307 307 308 313 315 315 316 316 313 313 314 317 323 323 321 324 326 325 324 326 328 330 331 332 334 334 335 336 336 336 337 337 337 337 337 336 334 329 327 335 343 346 346 345 344 344
249 250 250 251 253 255 256 256 257 258 257 257 259 261 262 263 263 266 269 271 272 274 274 274 274 273 274 274 276 280 284 289 294 298 301 300 299 298 300 302 303 304 306 310 313 313 313 314 314 314 313 312 317 321 320 321 323 323 322 322 324 326 328 330 333 333 334 334 335 336 335 335 335 335 335 335 332 326 319 322 334 341 343 343 342 342
251 253 253 252 253 254 255 255 255 256 256 256 259 261 261 261 261 261 263 267 269 271 272 273 274 273 274 275 276 278 281 284 289 294 299 301 300 300 301 301 302 302 304 307 309 310 310 312 314 315 315 313 314 316 318 319 321 322 322 321 321 323 325 328 331 332 332 332 333 334 333 333 333 333 334 335 332 326 318 316 325 334 339 340 340 340
252 252 251 251 252 253 255 255 255 255 255 255 258 260 260 260 260 261 261 263 265 267 270 271 271 271 273 275 276 276 280 284 286 287 291 293 295 298 300 301 301 302 303 303 305 306 308 310 311 313 315 315 314 315 315 317 320 322 322 321 320 320 322 325 328 329 330 330 331 332 331 331 331 331 333 335 333 329 323 318 322 329 334 336 338 338
250 250 249 249 251 252 253 254 253 252 253 253 255 258 259 259 261 262 262 261 263 264 266 267 268 270 272 273 275 275 278 280 281 282 284 284 288 294 297 299 301 303 304 304 303 305 306 307 309 311 313 314 315 315 315 317 320 322 322 322 320 319 319 321 322 324 327 328 329 329 329 330 330 331 332 334 333 330 328 324 324 328 330 332 335 336
249 249 248 246 249 250 250 251 252 252 253 254 254 256 258 260 261 262 262 262 263 263 263 264 266 268 268 270 273 276 278 279 280 279 278 279 283 288 293 297 299 302 304 304 304 305 305 306 306 308 311 313 313 314 315 316 319 322 322 321 320 320 318 318 318 320 322 325 326 326 327 328 329 330 332 332 330 328 328 326 326 327 327 329 332 333
249 250 249 246 248 250 249 251 255 256 256 256 255 256 258 260 261 261 263 263 262 262 263 265 265 265 267 268 271 274 276 279 282 281 280 280 281 283 287 292 295 298 300 301 302 303 303 304 306 308 309 310 311 312 313 314 317 320 321 320 320 320 319 316 317 319 319 321 323 323 324 327 328 329 330 329 326 325 327 326 326 326 327 328 330 331
249 250 250 246 247 250 250 253 258 258 257 256 255 256 258 260 261 261 261 262 263 264 264 265 265 265 266 267 268 271 273 276 278 279 282 284 284 284 286 288 290 293 296 297 299 300 302 303 304 306 307 308 309 309 310 312 314 317 319 319 319 319 318 316 316 317 317 318 320 321 322 324 325 326 328 326 322 321 324 325 325 327 327 327 329 331
248 250 251 247 247 249 251 254 258 257 255 255 255 255 257 259 260 260 260 261 264 265 265 266 266 266 266 267 268 269 270 271 273 275 279 283 285 285 285 287 289 291 292 295 297 299 300 301 302 304 305 306 307 308 309 310 312 315 317 317 317 317 316 315 315 316 316 316 318 318 319 322 323 324 325 323 319 317 319 320 323 327 328 328 329 331
247 248 251 250 247 249 252 254 255 255 253 253 253 253 254 256 257 259 260 262 265 266 266 266 266 266 268 269 269 269 268 269 270 271 274 276 280 283 283 284 286 288 289 292 294 296 297 298 299 301 303 304 306 307 308 310 312 314 315 315 316 315 315 315 315 315 315 314 314 314 316 320 322 322 323 321 315 311 313 317 320 325 328 329 330 332
246 246 250 251 249 247 248 250 252 254 253 252 253 255 255 255 257 259 260 261 262 264 266 266 266 267 268 269 269 269 269 268 268 269 271 271 275 280 282 281 281 285 288 289 291 293 294 295 296 298 300 303 304 306 308 309 310 311 313 315 314 314 315 315 314 314 313 312 311 310 314 319 320 319 320 317 309 306 310 316 318 321 326 329 329 332
245 247 249 252 251 246 245 246 249 253 256 256 255 257 257 258 258 259 260 259 259 261 264 266 267 267 268 268 270 271 270 269 268 268 270 272 274 279 281 282 282 284 286 289 290 291 292 293 294 296 299 301 303 305 306 307 308 310 312 313 314 314 315 315 314 313 314 313 311 309 313 317 316 316 317 312 307 305 308 314 316 316 321 326 328 329
246 248 249 251 252 249 247 249 250 252 257 260 260 258 258 259 259 260 260 259 258 259 261 264 266 267 268 269 270 271 271 270 269 269 270 272 273 275 277 280 282 283 284 286 289 291 292 292 294 296 298 299 301 302 304 306 308 310 312 313 314 314 314 314 314 313 314 314 311 311 314 315 315 315 314 310 306 304 308 313 315 313 316 322 326 327
245 246 248 250 252 251 249 250 251 250 251 255 258 259 258 257 258 259 259 260 260 260 260 262 265 266 268 269 269 270 271 271 270 270 271 273 274 275 275 275 278 281 282 283 285 288 290 292 294 296 297 298 299 301 303 305 307 310 311 313 314 314 314 315 314 312 312 312 311 313 315 315 315 314 311 310 308 307 310 313 313 312 314 318 323 325
244 246 247 249 251 252 250 250 251 251 250 250 253 256 257 258 258 258 260 262 262 262 262 264 265 265 265 267 269 269 270 271 272 272 271 271 273 276 277 277 278 279 282 284 284 286 288 291 293 294 295 297 298 300 302 304 307 309 311 312 313 313 314 316 314 312 311 311 313 316 317 317 317 315 313 312 311 310 312 312 310 311 313 316 321 323
244 245 247 248 250 252 252 251 251 252 252 251 251 254 257 259 259 260 262 264 265 265 265 265 264 264 263 265 267 268 268 269 271 273 274 274 274 274 276 279 281 281 282 283 285 286 288 290 293 294 295 296 298 300 302 304 306 308 310 311 312 312 314 315 313 311 310 312 314 316 317 317 315 314 313 312 310 310 310 309 308 310 312 314 317 320
245 245 246 248 250 251 251 251 252 252 252 252 252 253 255 258 260 261 262 263 265 266 265 265 264 264 264 265 266 266 267 268 269 271 274 277 278 276 275 277 279 281 283 284 285 286 288 290 293 295 296 296 298 300 301 303 306 307 309 311 311 312 313 313 310 308 309 313 314 314 315 312 308 308 309 309 309 309 308 307 306 308 310 311 313 316
244 245 246 247 249 250 251 251 252 252 252 252 253 253 255 256 257 259 261 263 263 264 264 264 265 265 264 265 266 266 267 268 270 272 274 275 277 278 277 276 277 279 281 283 286 288 289 290 291 293 295 297 298 299 301 303 305 308 311 311 310 310 312 311 309 308 309 311 311 311 310 305 300 302 305 306 308 308 307 306 305 305 307 309 310 314
245 246 248 248 249 250 251 252 252 252 252 253 253 253 254 255 256 257 260 262 263 263 263 263 263 264 264 264 265 265 267 269 272 274 274 274 274 275 277 278 279 280 280 281 284 287 290 291 292 293 295 297 298 300 302 304 306 310 312 310 306 305 306 305 305 305 306 308 309 308 303 297 294 298 300 301 303 305 306 306 306 306 307 308 309 313
245 247 249 250 251 251 253 254 254 253 252 252 252 252 253 254 255 256 257 258 260 262 263 263 263 264 264 264 264 265 267 270 273 274 275 275 274 275 277 279 280 280 281 281 282 285 288 290 291 293 295 296 298 300 302 305 308 310 308 302 299 300 299 298 301 301 303 307 306 299 293 289 290 293 295 296 299 303 306 307 306 306 306 307 308 312
246 249 250 252 252 254 254 254 253 252 250 250 250 252 253 253 254 255 256 257 259 260 261 263 264 265 265 265 266 268 271 273 274 274 274 274 275 276 278 279 279 280 281 282 283 283 285 288 290 292 294 295 297 300 303 305 307 306 303 301 301 300 297 297 300 299 300 303 296 284 282 285 287 289 291 293 297 303 307 307 306 305 305 306 307 311
247 249 251 253 253 253 253 251 251 250 251 252 253 253 253 254 255 256 257 257 258 259 261 263 265 265 266 266 268 271 274 275 274 274 273 274 275 276 277 278 279 279 280 281 282 283 284 286 288 290 292 294 296 300 303 305 303 301 303 305 304 300 298 302 304 299 291 286 278 273 276 282 285 287 289 292 298 304 306 305 305 304 305 306 307 310
246 247 249 251 252 252 251 251 251 252 254 257 258 256 254 255 256 256 257 257 257 259 260 262 263 264 266 268 270 272 272 272 272 273 275 276 275 275 276 279 280 279 281 282 283 284 284 284 285 287 290 293 297 301 303 303 301 301 303 305 302 297 296 302 306 297 280 271 270 271 275 280 282 285 289 294 300 303 304 303 303 304 305 305 306 309
244 245 246 248 250 251 251 252 253 255 256 257 257 256 255 255 255 255 255 256 258 259 260 262 263 265 267 268 270 270 271 271 272 274 275 275 274 275 277 279 279 280 282 284 284 285 285 285 286 288 291 295 298 301 302 302 302 301 300 300 296 290 288 292 291 278 265 263 266 271 276 278 281 287 292 296 299 302 303 302 303 303 304 304 305 309
244 245 245 247 249 250 251 252 253 254 254 255 255 255 255 255 255 255 256 258 260 261 262 262 263 265 267 268 270 270 271 273 273 273 273 273 274 277 278 278 279 281 282 283 284 285 286 287 288 289 292 296 299 302 305 306 304 300 300 301 298 289 284 282 274 265 262 264 268 274 278 280 284 289 292 295 299 301 302 302 302 303 303 303 305 309
244 245 246 247 247 248 249 251 252 253 254 254 254 254 255 255 255 256 257 258 260 262 263 264 264 265 266 268 269 270 270 272 272 272 272 272 274 277 278 279 280 281 282 282 282 284 286 287 288 289 291 292 297 305 309 306 301 297 300 304 300 289 282 276 268 266 268 270 274 277 279 281 284 288 291 295 299 300 301 302 302 303 302 303 306 310
244 245 246 247 247 248 249 251 253 254 254 253 253 254 255 255 255 257 258 258 260 261 263 264 265 265 265 266 267 268 269 270 270 271 271 273 275 277 277 277 279 281 283 283 283 284 285 286 286 287 287 286 288 294 294 290 287 288 293 298 292 283 280 276 270 268 268 270 273 275 276 279 282 286 292 296 298 298 299 301 301 301 301 303 307 311
243 244 245 246 247 248 250 252 253 254 253 252 252 253 253 254 255 256 258 259 259 260 261 263 264 265 265 265 266 267 268 268 270 271 273 274 275 275 276 276 278 280 282 283 284 285 285 284 284 285 285 284 283 282 278 275 275 276 277 280 277 274 274 276 276 274 271 271 272 273 275 278 281 287 292 295 296 297 298 300 300 300 302 305 309 311
242 242 243 245 247 247 248 250 252 253 253 252 252 252 253 254 256 257 258 259 258 258 260 262 264 265 266 266 266 267 268 270 271 271 272 273 273 275 277 278 279 279 280 281 283 283 283 283 284 284 285 284 283 280 275 272 272 270 270 273 275 274 274 277 278 277 274 273 274 276 280 282 283 287 291 293 295 298 299 299 299 300 303 307 309 310
240 241 242 244 245 247 248 249 250 251 252 252 252 253 254 254 256 257 258 258 258 258 260 262 263 265 267 268 268 268 269 269 269 268 270 272 275 277 278 279 279 279 279 280 281 281 281 282 284 285 284 283 283 280 275 270 268 268 270 272 275 275 276 277 277 276 276 277 280 283 284 283 284 287 289 292 297 299 298 298 299 302 305 308 309 309
240 241 242 244 244 245 246 247 248 249 250 251 252 252 253 254 255 256 257 258 259 260 260 261 262 264 266 268 269 269 268 268 268 270 272 274 276 277 278 279 280 279 278 278 278 280 281 283 284 284 283 283 282 281 278 275 272 271 272 274 275 275 275 275 275 275 277 280 282 283 282 282 283 286 288 293 298 299 297 298 301 303 306 308 308 309
239 240 241 243 244 245 245 246 248 249 250 251 251 251 252 253 255 256 257 257 258 259 261 262 262 262 264 265 266 266 267 269 271 272 274 275 276 276 276 276 277 278 278 278 278 280 281 283 283 283 283 284 283 281 280 279 278 277 277 277 277 277 277 277 277 276 277 279 280 279 279 280 282 285 289 294 298 298 298 300 302 304 306 307 307 309
237 238 239 241 242 244 245 246 247 248 249 250 250 251 252 252 253 254 256 255 255 257 261 262 261 261 261 262 263 264 266 268 271 272 274 275 275 275 275 274 275 276 277 277 278 278 279 280 282 282 283 283 282 281 281 282 283 282 281 281 281 281 280 279 277 277 278 278 278 278 278 280 282 287 292 296 298 298 299 300 302 304 305 306 307 308
236 237 238 239 241 244 246 248 248 248 249 250 251 251 252 252 251 252 253 254 255 258 259 259 260 261 262 263 264 265 267 268 270 271 271 272 273 273 274 274 274 274 274 275 276 277 277 278 279 280 281 281 280 281 283 285 285 284 282 282 282 281 279 277 275 275 277 278 277 277 279 282 286 291 294 297 297 297 298 300 302 304 306 307 308 308
235 236 237 237 238 239 242 246 247 247 248 249 250 251 251 252 252 252 253 254 255 257 258 259 261 262 263 264 265 266 267 268 269 269 270 271 272 272 272 273 273 273 274 275 276 277 277 278 278 278 279 279 279 281 283 284 285 284 282 281 280 278 276 273 273 274 276 277 277 279 283 287 290 293 295 296 296 298 300 302 304 306 306 307 307 307
235 235 236 237 237 237 237 239 242 245 246 249 251 251 251 251 252 252 253 254 255 256 258 259 260 261 262 263 264 266 267 267 267 268 268 269 270 271 272 273 274 275 276 276 276 277 278 278 278 278 278 278 279 281 283 284 284 283 279 277 275 274 273 273 274 276 278 279 281 285 288 291 293 294 296 297 299 301 303 304 305 306 306 305 305 304
235 236 236 236 237 238 238 240 242 244 246 249 251 252 251 251 251 251 252 253 254 256 257 259 261 262 262 263 264 265 266 267 267 267 268 269 269 270 271 272 273 275 276 277 277 278 278 278 279 279 280 280 280 281 281 282 282 281 278 275 273 271 272 274 277 278 280 283 286 289 291 292 294 295 297 300 301 302 303 303 304 303 303 302 302 302
236 236 236 236 237 238 239 241 243 244 245 246 247 248 249 249 250 251 252 253 254 256 258 260 262 262 262 263 264 265 266 267 267 268 269 270 270 270 270 271 272 274 275 276 277 278 279 279 280 280 281 281 281 281 280 280 279 278 276 274 272 271 272 274 276 278 281 285 288 290 291 293 294 296 298 299 300 300 300 300 301 301 301 301 302 303
235 236 236 236 237 239 240 241 242 242 242 242 245 247 248 248 250 250 251 253 255 257 258 259 260 261 261 262 263 264 265 267 268 269 269 270 270 271 272 273 274 275 276 277 278 279 280 281 281 281 281 282 281 281 281 280 279 276 272 271 271 273 275 276 278 281 285 287 289 290 291 292 293 295 296 296 296 297 298 299 299 300 301 302 302 303
Height
11009 11009 11009 11009 11009 11009 11009 11009 11008 11008 11007 11007 11006 11005 11004 11004 11003 11002 11002 11002 11002 11002 11002 11002 11001 11000 11000 10999 10998 10998 10998 10998 10997 10997 10997 10997 10997 10997 10996 10997 10996 10996 10995 10995 10994 10994 10994 10993 10992 10992 10991 10991 10990 10989 10988 10987 10986 10985 10984 10984 10983 10981 10980 10978 10976 10975 10973 10971 10970 10968 10966 10963 10962 10960 10958 10956 10954 10952 10950 10947 10945 10942 10940 10937 10935 10932
11007 11007 11007 11007 11008 11008 11008 11008 11008 11008 11007 11007 11006 11005 11005 11004 11004 11003 11003 11002 11002 11002 11002 11002 11002 11001 11001 11000 11000 10999 10998 10998 10998 10997 10997 10997 10997 10997 10997 10997 10997 10996 10995 10994 10994 10994 10993 10993 10992 10991 10991 10990 10990 10989 10988 10987 10986 10985 10984 10983 10981 10980 10978 10977 10975 10973 10972 10970 10969 10967 10965 10963 10961 10959 10957 10955 10953 10950 10948 10946 10943 10940 10938 10935 10932 10930
11004 11005 11005 11005 11006 11006 11007 11007 11007 11007 11007 11006 11006 11005 11005 11005 11004 11003 11003 11003 11002 11002 11001 11001 11001 11001 11001 11001 11001 11000 10999 10998 10998 10998 10997 10997 10997 10997 10997 10997 10997 10996 10995 10994 10994 10993 10993 10992 10992 10991 10990 10990 10989 10989 10988 10987 10986 10984 10983 10982 10980 10979 10977 10975 10974 10972 10970 10969 10967 10966 10964 10962 10960 10957 10955 10953 10951 10949 10946 10944 10941 10938 10936 10933 10930 10928
11002 11002 11003 11003 11003 11003 11004 11005 11005 11005 11005 11005 11005 11005 11005 11004 11004 11004 11003 11003 11002 11002 11001 11001 11001 11001 11001 11001 11001 11000 11000 10999 10999 10998 10998 10997 10997 10997 10997 10997 10997 10996 10995 10994 10993 10993 10992 10992 10991 10990 10990 10989 10988 10987 10987 10986 10985 10983 10982 10981 10979 10978 10976 10975 10973 10971 10970 10968 10966 10964 10962 10960 10958 10955 10953 10950 10948 10946 10943 10941 10938 10936 10934 10931 10929 10926
10999 11000 11000 11001 11001 11001 11001 11002 11003 11003 11003 11004 11004 11004 11004 11003 11003 11003 11003 11002 11002 11002 11001 11001 11001 11001 11000 11000 11000 11000 11000 11000 10999 10998 10998 10997 10997 10997 10997 10997 10996 10996 10995 10994 10993 10992 10991 10991 10990 10989 10989 10988 10987 10986 10985 10985 10984 10982 10981 10980 10979 10978 10977 10975 10973 10971 10969 10967 10964 10962 10960 10958 10956 10954 10951 10948 10945 10943 10940 10938 10936 10934 10931 10929 10927 10924
10996 10997 10997 10998 10999 10999 10999 11000 11000 11001 11001 11002 11002 11002 11003 11002 11002 11002 11002 11002 11002 11001 11001 11000 11000 11000 11000 11000 10999 10999 10999 10999 10999 10999 10998 10997 10996 10996 10996 10995 10995 10995 10995 10994 10993 10992 10991 10990 10989 10989 10988 10987 10986 10985 10984 10983 10982 10981 10980 10979 10978 10977 10976 10974 10972 10970 10968 10965 10963 10961 10959 10957 10955 10953 10950 10947 10944 10941 10939 10936 10934 10931 10929 10926 10924 10921
10993 10994 10994 10995 10996 10997 10997 10997 10998 10998 10999 11000 11000 11000 11001 11001 11001 11001 11001 11001 11001 11001 11000 10999 10999 10999 10999 10999 10999 10998 10998 10998 10998 10998 10998 10997 10996 10996 10995 10995 10995 10995 10994 10993 10992 10991 10990 10989 10989 10988 10987 10986 10985 10984 10983 10982 10981 10980 10979 10978 10976 10975 10974 10972 10971 10969 10967 10964 10962 10960 10958 10956 10953 10951 10948 10946 10943 10940 10937 10934 10931 10928 10925 10922 10919 10916
10989 10990 10991 10992 10993 10994 10994 10995 10995 10996 10997 10998 10997 10998 10998 10998 10999 10999 10999 10999 10999 10999 10999 10999 10998 10997 10997 10997 10998 10997 10997 10997 10997 10997 10998 10997 10996 10995 10995 10994 10994 10994 10993 10993 10992 10991 10990 10989 10988 10987 10986 10985 10984 10983 10982 10980 10979 10978 10977 10976 10974 10973 10972 10970 10969 10967 10965 10963 10961 10958 10955 10953 10951 10948 10946 10943 10941 10938 10935 10932 10929 10925 10921 10918 10915 10912
10984 10987 10988 10989 10991 10991 10991 10992 10992 10992 10994 10995 10995 10995 10996 10996 10996 10997 10998 10998 10998 10998 10998 10998 10997 10996 10996 10995 10996 10996 10995 10995 10995 10996 10996 10996 10996 10995 10994 10993 10992 10992 10992 10991 10990 10989 10988 10987 10986 10985 10984 10983 10983 10981 10980 10978 10977 10976 10975 10974 10972 10971 10969 10968 10966 10965 10963 10960 10958 10955 10953 10951 10948 10946 10944 10941 10938 10935 10931 10928 10925 10922 10918 10915 10911 10908
10980 10983 10983 10986 10988 10987 10987 10988 10989 10989 10990 10992 10992 10992 10993 10994 10994 10994 10995 10996 10997 10996 10996 10996 10996 10996 10995 10994 10994 10994 10993 10993 10993 10993 10994 10994 10994 10994 10994 10992 10991 10990 10989 10989 10988 10987 10987 10985 10984 10984 10983 10982 10980 10979 10978 10976 10976 10974 10973 10971 10969 10967 10965 10964 10962 10961 10959 10957 10955 10953 10950 10948 10946 10944 10941 10938 10935 10932 10928 10924 10920 10917 10914 10911 10908 10904
10976 10978 10979 10982 10983 10983 10983 10984 10986 10986 10987 10989 10990 10989 10990 10991 10991 10991 10992 10993 10994 10994 10994 10994 10995 10995 10995 10993 10992 10992 10991 10991 10991 10991 10992 10992 10992 10992 10992 10991 10989 10988 10987 10987 10986 10985 10985 10984 10983 10982 10981 10980 10978 10976 10975 10974 10973 10972 10970 10968 10966 10964 10962 10960 10958 10957 10955 10954 10952 10950 10948 10945 10942 10939 10937 10934 10931 10927 10924 10920 10917 10913 10910 10907 10904 10901
10970 10973 10975 10977 10977 10977 10979 10980 10981 10982 10984 10986 10986 10986 10987 10988 10988 10988 10989 10990 10990 10990 10991 10992 10992 10993 10993 10992 10992 10991 10990 10990 10990 10990 10990 10991 10991 10991 10991 10990 10988 10986 10985 10985 10983 10982 10982 10982 10980 10979 10978 10978 10976 10974 10972 10972 10970 10969 10967 10966 10964 10961 10959 10956 10954 10952 10951 10949 10948 10946 10943 10940 10937 10935 10932 10929 10926 10923 10919 10916 10912 10909 10907 10904 10901 10897
10963 10966 10969 10970 10972 10973 10974 10977 10977 10978 10981 10982 10982 10982 10984 10985 10986 10985 10985 10986 10987 10987 10987 10989 10990 10990 10991 10991 10990 10990 10989 10989 10988 10987 10987 10986 10987 10988 10988 10989 10987 10984 10982 10982 10981 10978 10979 10979 10978 10977 10976 10975 10974 10971 10970 10969 10968 10966 10964 10963 10961 10959 10956 10953 10950 10948 10946 10944 10943 10940 10938 10935 10932 10930 10927 10924 10921 10918 10915 10911 10908 10905 10903 10900 10897 10893
10956 10960 10964 10966 10968 10968 10969 10972 10972 10973 10976 10977 10978 10979 10980 10982 10983 10983 10982 10982 10983 10983 10983 10984 10986 10987 10987 10987 10988 10988 10987 10987 10986 10984 10983 10981 10981 10983 10984 10986 10986 10984 10980 10979 10978 10976 10975 10976 10976 10975 10973 10972 10971 10969 10967 10966 10965 10963 10961 10959 10957 10955 10952 10949 10946 10944 10941 10939 10937 10934 10932 10930 10927 10925 10923 10920 10917 10913 10910 10907 10903 10901 10898 10896 10893 10889
10952 10957 10960 10962 10963 10962 10963 10966 10967 10968 10971 10973 10974 10975 10976 10977 10978 10979 10979 10979 10980 10980 10979 10980 10982 10982 10983 10983 10984 10986 10985 10984 10984 10983 10982 10978 10976 10977 10979 10981 10982 10982 10979 10976 10975 10974 10972 10971 10972 10971 10970 10969 10968 10966 10963 10962 10961 10959 10957 10955 10953 10951 10948 10945 10942 10939 10937 10935 10932 10929 10927 10924 10922 10920 10918 10915 10912 10907 10904 10901 10899 10897 10894 10892 10888 10885
10948 10951 10955 10957 10956 10955 10958 10960 10962 10962 10965 10969 10970 10971 10971 10971 10973 10974 10976 10976 10976 10976 10976 10976 10977 10978 10979 10979 10980 10982 10982 10981 10981 10981 10981 10979 10976 10974 10974 10976 10977 10978 10978 10975 10973 10972 10970 10969 10967 10967 10966 10964 10963 10962 10960 10958 10957 10956 10953 10951 10949 10947 10944 10941 10938 10935 10933 10930 10928 10925 10922 10920 10917 10915 10913 10910 10906 10902 10899 10898 10895 10892 10889 10886 10883 10880
10942 10943 10948 10952 10948 10948 10953 10953 10954 10957 10960 10964 10966 10966 10965 10965 10968 10970 10971 10972 10972 10973 10973 10972 10972 10974 10976 10976 10975 10978 10979 10978 10978 10978 10979 10978 10976 10973 10971 10971 10972 10973 10973 10971 10970 10969 10967 10966 10964 10963 10962 10960 10958 10956 10955 10954 10953 10951 10949 10947 10945 10943 10940 10937 10934 10932 10929 10926 10923 10921 10918 10916 10913 10910 10908 10905 10901 10898 10895 10892 10889 10886 10883 10881 10878 10875
10934 10934 10941 10947 10940 10942 10948 10944 10945 10953 10956 10959 10962 10960 10959 10961 10963 10965 10965 10967 10968 10968 10968 10967 10968 10970 10971 10972 10971 10972 10974 10973 10973 10973 10974 10975 10975 10973 10971 10969 10968 10969 10968 10966 10965 10964 10963 10962 10961 10959 10958 10956 10954 10952 10950 10948 10948 10947 10946 10943 10941 10939 10936 10933 10931 10929 10925 10922 10919 10916 10914 10912 10909 10906 10903 10901 10897 10893 10889 10886 10883 10881 10878 10876 10873 10870
10927 10927 10934 10940 10934 10936 10942 10937 10939 10950 10952 10954 10956 10953 10954 10956 10958 10960 10960 10961 10962 10962 10963 10963 10963 10965 10966 10968 10968 10968 10969 10968 10966 10965 10966 10969 10971 10971 10970 10967 10966 10965 10965 10963 10961 10960 10959 10958 10957 10956 10954 10952 10950 10949 10947 10945 10944 10944 10942 10940 10937 10934 10932 10929 10927 10925 10922 10918 10915 10912 10909 10907 10905 10902 10899 10897 10893 10889 10885 10882 10878 10875 10874 10872 10870 10866
10921 10920 10924 10931 10929 10929 10936 10934 10936 10945 10948 10948 10949 10948 10949 10951 10952 10953 10955 10955 10956 10957 10958 10957 10957 10960 10962 10964 10965 10965 10965 10964 10961 10959 10959 10960 10962 10965 10966 10964 10962 10962 10962 10960 10959 10957 10955 10953 10953 10952 10951 10950 10948 10946 10944 10942 10941 10940 10939 10937 10934 10931 10928 10925 10923 10921 10918 10915 10910 10907 10905 10902 10900 10897 10895 10892 10889 10884 10881 10877 10874 10871 10868 10867 10864 10861
10915 10914 10912 10920 10924 10924 10932 10934 10933 10937 10941 10941 10942 10943 10944 10945 10945 10946 10948 10950 10951 10951 10952 10951 10951 10955 10958 10959 10960 10960 10960 10959 10957 10956 10957 10955 10954 10957 10960 10958 10957 10957 10957 10956 10955 10953 10951 10949 10948 10947 10946 10946 10945 10943 10941 10939 10938 10937 10936 10933 10931 10928 10925 10922 10919 10917 10914 10911 10906 10902 10900 10897 10895 10892 10890 10887 10883 10879 10876 10874 10870 10866 10862 10859 10856 10852
10909 10907 10901 10907 10917 10924 10929 10930 10926 10927 10933 10935 10934 10937 10939 10939 10938 10939 10941 10945 10945 10944 10945 10944 10945 10950 10954 10954 10955 10954 10954 10953 10952 10953 10955 10954 10951 10951 10954 10955 10953 10952 10952 10953 10952 10949 10947 10945 10944 10943 10943 10941 10941 10940 10938 10936 10935 10934 10932 10930 10927 10924 10921 10918 10915 10912 10910 10907 10902 10898 10896 10892 10889 10886 10884 10881 10877 10874 10871 10869 10866 10861 10856 10853 10849 10843
10899 10899 10893 10894 10909 10923 10924 10922 10920 10918 10923 10928 10929 10931 10933 10933 10934 10934 10936 10940 10939 10938 10938 10936 10938 10945 10948 10949 10949 10948 10946 10946 10948 10949 10949 10950 10950 10948 10947 10949 10950 10948 10947 10948 10948 10946 10944 10942 10940 10940 10940 10938 10936 10935 10934 10933 10932 10931 10930 10927 10923 10920 10917 10913 10909 10906 10905 10902 10897 10892 10890 10887 10883 10881 10878 10875 10871 10867 10864 10862 10859 10855 10851 10847 10843 10838
10889 10890 10888 10887 10898 10914 10915 10914 10917 10914 10914 10922 10925 10926 10926 10926 10929 10929 10929 10932 10933 10933 10933 10930 10932 10939 10941 10943 10943 10940 10938 10940 10942 10943 10943 10944 10947 10945 10942 10942 10944 10945 10943 10942 10942 10941 10939 10939 10937 10935 10936 10935 10933 10931 10930 10930 10929 10927 10926 10923 10919 10916 10911 10907 10903 10900 10899 10897 10891 10887 10884 10880 10877 10874 10870 10867 10863 10860 10857 10855 10853 10850 10846 10842 10838 10834
10883 10881 10882 10881 10885 10901 10908 10909 10914 10915 10912 10915 10918 10920 10920 10920 10922 10923 10920 10922 10925 10928 10928 10925 10926 10932 10934 10936 10937 10933 10930 10932 10935 10938 10939 10940 10942 10941 10939 10938 10939 10940 10941 10940 10937 10935 10934 10933 10932 10931 10931 10931 10930 10928 10927 10926 10925 10923 10921 10918 10915 10911 10907 10901 10896 10892 10892 10891 10887 10882 10878 10873 10870 10866 10862 10859 10857 10854 10852 10849 10847 10844 10841 10837 10834 10830
10875 10872 10874 10875 10876 10890 10903 10905 10907 10911 10912 10912 10910 10910 10912 10913 10915 10915 10912 10913 10918 10922 10921 10919 10921 10926 10928 10928 10928 10926 10924 10923 10927 10934 10936 10935 10936 10934 10933 10935 10936 10935 10936 10937 10936 10933 10930 10928 10927 10926 10926 10926 10926 10925 10923 10921 10920 10918 10916 10913 10910 10906 10901 10896 10889 10884 10884 10884 10880 10876 10872 10866 10861 10858 10855 10853 10852 10850 10847 10844 10841 10838 10835 10831 10827 10823
10865 10864 10867 10869 10870 10881 10895 10898 10898 10901 10906 10909 10907 10902 10902 10906 10909 10907 10905 10907 10911 10913 10914 10913 10914 10919 10922 10921 10919 10919 10918 10916 10918 10925 10930 10931 10931 10929 10925 10928 10931 10931 10930 10930 10930 10931 10929 10926 10924 10923 10922 10921 10921 10921 10919 10917 10915 10914 10911 10909 10906 10900 10894 10890 10883 10877 10875 10875 10871 10867 10863 10858 10853 10850 10848 10847 10846 10844 10841 10838 10834 10831 10828 10823 10819 10816
10854 10856 10859 10863 10866 10874 10884 10888 10890 10894 10897 10902 10904 10900 10897 10898 10901 10901 10901 10902 10902 10904 10907 10906 10905 10910 10915 10914 10913 10912 10911 10912 10914 10917 10921 10923 10924 10924 10922 10921 10923 10925 10925 10924 10923 10924 10925 10923 10920 10918 10917 10916 10916 10916 10915 10914 10911 10909 10906 10903 10900 10895 10889 10884 10877 10870 10868 10866 10862 10858 10854 10850 10846 10844 10842 10841 10840 10837 10834 10830 10826 10823 10821 10817 10814 10811
10842 10848 10853 10858 10861 10867 10873 10877 10881 10887 10890 10892 10895 10895 10893 10893 10894 10896 10896 10896 10895 10896 10898 10896 10896 10901 10907 10907 10905 10905 10905 10907 10911 10914 10917 10917 10913 10914 10918 10918 10917 10918 10918 10917 10916 10917 10919 10919 10916 10913 10910 10909 10910 10910 10910 10910 10908 10904 10901 10897 10892 10888 10884 10878 10871 10865 10862 10859 10855 10850 10847 10844 10841 10837 10836 10835 10833 10831 10828 10824 10821 10817 10814 10811 10808 10805
10833 10840 10847 10851 10854 10858 10864 10869 10874 10879 10881 10883 10887 10888 10888 10888 10889 10889 10889 10888 10888 10889 10889 10888 10888 10893 10898 10898 10897 10897 10899 10902 10905 10909 10913 10913 10907 10904 10907 10911 10912 10913 10913 10912 10911 10909 10911 10912 10911 10908 10906 10903 10902 10903 10904 10904 10902 10899 10895 10890 10885 10880 10876 10871 10865 10859 10856 10854 10850 10846 10843 10839 10836 10833 10831 10829 10828 10826 10823 10820 10817 10812 10809 10805 10801 10798
10828 10834 10840 10845 10847 10851 10856 10861 10866 10870 10872 10875 10879 10880 10879 10881 10882 10883 10884 10881 10878 10879 10879 10879 10881 10886 10889 10891 10890 10890 10894 10898 10901 10903 10905 10906 10901 10897 10898 10902 10905 10906 10907 10908 10908 10905 10904 10904 10903 10902 10901 10896 10893 10894 10895 10895 10894 10892 10891 10887 10881 10874 10868 10864 10859 10854 10852 10850 10845 10840 10837 10834 10831 10830 10827 10826 10824 10822 10819 10816 10812 10808 10804 10800 10795 10791
10824 10829 10833 10837 10839 10843 10850 10854 10857 10860 10863 10866 10868 10870 10871 10872 10873 10874 10876 10873 10870 10870 10869 10868 10873 10880 10882 10882 10883 10884 10890 10896 10898 10898 10898 10895 10892 10891 10893 10896 10898 10897 10897 10900 10904 10903 10900 10898 10896 10896 10895 10892 10888 10886 10887 10887 10886 10887 10888 10885 10877 10869 10863 10857 10852 10848 10848 10846 10840 10834 10830 10827 10826 10824 10823 10822 10820 10817 10814 10811 10807 10803 10799 10794 10790 10785
10821 10825 10826 10829 10833 10838 10844 10846 10846 10847 10850 10854 10859 10863 10862 10861 10861 10864 10867 10866 10863 10861 10860 10860 10865 10872 10874 10874 10875 10880 10886 10890 10891 10892 10891 10885 10883 10885 10888 10888 10890 10891 10889 10891 10895 10897 10897 10894 10889 10888 10889 10888 10885 10882 10881 10881 10879 10878 10878 10876 10871 10865 10859 10853 10849 10845 10845 10844 10839 10830 10823 10820 10819 10818 10816 10815 10813 10810 10807 10803 10799 10796 10792 10788 10784 10778
10816 10821 10820 10821 10826 10833 10836 10835 10833 10834 10839 10847 10854 10856 10852 10850 10854 10860 10861 10857 10854 10852 10853 10855 10858 10862 10864 10866 10871 10877 10881 10882 10881 10882 10881 10879 10877 10878 10881 10882 10883 10883 10883 10884 10886 10889 10892 10890 10885 10881 10882 10882 10882 10880 10878 10875 10871 10868 10869 10869 10865 10860 10855 10850 10846 10844 10844 10841 10832 10823 10818 10815 10812 10810 10808 10807 10804 10801 10798 10795 10791 10787 10783 10780 10776 10770
10809 10814 10814 10814 10817 10823 10825 10823 10822 10827 10835 10844 10848 10846 10843 10845 10850 10852 10848 10844 10844 10845 10847 10849 10850 10853 10856 10861 10866 10871 10873 10873 10872 10872 10873 10871 10868 10870 10875 10876 10875 10875 10876 10877 10878 10879 10882 10883 10880 10877 10878 10879 10879 10877 10872 10867 10861 10859 10863 10865 10860 10854 10850 10846 10844 10842 10839 10832 10823 10816 10814 10810 10806 10804 10802 10799 10796 10793 10791 10788 10784 10779 10775 10771 10768 10762
10802 10805 10806 10806 10807 10813 10815 10812 10815 10824 10832 10838 10839 10835 10835 10840 10841 10837 10833 10833 10836 10839 10839 10840 10843 10847 10850 10855 10859 10861 10862 10863 10865 10867 10866 10858 10856 10864 10872 10870 10867 10867 10869 10870 10869 10869 10872 10874 10873 10872 10874 10876 10875 10871 10867 10862 10855 10852 10855 10856 10855 10851 10846 10843 10842 10838 10830 10823 10817 10813 10809 10805 10802 10799 10796 10793 10789 10786 10784 10782 10777 10772 10766 10763 10759 10754
10793 10794 10797 10799 10801 10805 10805 10803 10808 10818 10824 10828 10830 10827 10827 10831 10829 10823 10824 10828 10831 10831 10829 10830 10837 10842 10843 10846 10850 10852 10854 10854 10855 10858 10855 10848 10848 10858 10864 10863 10860 10861 10862 10862 10860 10860 10862 10865 10865 10866 10869 10870 10867 10863 10860 10856 10850 10845 10845 10846 10847 10846 10842 10837 10834 10829 10822 10816 10812 10808 10803 10800 10797 10794 10791 10786 10781 10778 10777 10775 10771 10765 10759 10754 10750 10745
10783 10785 10789 10792 10794 10796 10796 10795 10800 10809 10816 10820 10820 10817 10818 10822 10817 10813 10817 10824 10826 10822 10818 10820 10828 10835 10837 10839 10842 10845 10847 10846 10845 10846 10844 10840 10844 10851 10854 10854 10854 10853 10852 10853 10853 10854 10855 10856 10857 10859 10861 10862 10862 10861 10857 10852 10846 10840 10840 10842 10842 10838 10833 10829 10826 10822 10816 10811 10806 10801 10797 10795 10793 10790 10786 10780 10774 10770 10768 10765 10761 10757 10751 10745 10740 10735
10774 10777 10779 10780 10784 10788 10788 10789 10794 10802 10809 10812 10809 10806 10809 10811 10808 10804 10809 10818 10822 10816 10810 10812 10819 10825 10829 10831 10833 10837 10840 10839 10835 10835 10836 10836 10838 10842 10844 10847 10848 10845 10841 10841 10844 10848 10849 10848 10848 10849 10849 10851 10859 10863 10857 10849 10845 10842 10841 10843 10840 10831 10823 10819 10817 10814 10809 10804 10799 10795 10792 10790 10789 10786 10781 10775 10770 10766 10762 10758 10753 10749 10743 10736 10730 10724
10764 10766 10767 10770 10775 10780 10781 10782 10786 10792 10799 10801 10799 10797 10798 10799 10799 10799 10803 10812 10817 10810 10803 10805 10808 10811 10816 10822 10826 10828 10830 10829 10827 10827 10828 10830 10831 10831 10832 10837 10843 10840 10834 10831 10834 10838 10839 10836 10836 10839 10839 10841 10850 10857 10852 10843 10839 10839 10837 10835 10831 10823 10816 10810 10807 10804 10801 10797 10793 10790 10787 10785 10783 10780 10775 10770 10766 10762 10757 10752 10746 10741 10735 10728 10720 10713
10755 10755 10757 10761 10766 10771 10773 10774 10777 10781 10786 10789 10789 10789 10790 10790 10791 10795 10799 10804 10806 10800 10797 10799 10800 10800 10805 10812 10817 10820 10820 10820 10821 10820 10818 10818 10822 10823 10822 10826 10833 10834 10829 10826 10826 10827 10827 10825 10825 10828 10829 10830 10836 10843 10844 10839 10832 10829 10828 10825 10821 10816 10808 10801 10797 10793 10789 10786 10785 10782 10780 10778 10775 10772 10768 10763 10759 10755 10749 10744 10738 10732 10726 10719 10710 10703
10744 10745 10748 10752 10757 10762 10764 10766 10769 10771 10773 10777 10778 10781 10785 10784 10785 10789 10793 10794 10794 10793 10794 10795 10794 10794 10797 10801 10806 10809 10810 10810 10810 10810 10809 10809 10813 10815 10814 10815 10821 10825 10823 10820 10817 10816 10816 10817 10818 10818 10818 10818 10821 10824 10828 10828 10823 10819 10818 10816 10812 10807 10800 10793 10788 10782 10776 10774 10774 10773 10770 10768 10765 10762 10758 10754 10750 10746 10741 10735 10729 10723 10716 10708 10699 10693
10735 10737 10741 10745 10749 10752 10753 10755 10758 10760 10763 10769 10771 10773 10776 10776 10778 10782 10785 10785 10785 10786 10788 10789 10789 10791 10792 10792 10794 10797 10797 10797 10797 10799 10803 10804 10805 10806 10806 10806 10809 10811 10813 10812 10809 10807 10807 10808 10810 10810 10807 10806 10807 10807 10809 10811 10810 10808 10805 10802 10799 10796 10791 10786 10781 10775 10768 10765 10764 10762 10760 10757 10755 10752 10749 10745 10741 10737 10732 10726 10719 10712 10706 10698 10689 10683
10728 10730 10734 10737 10740 10743 10745 10746 10749 10751 10756 10762 10764 10764 10766 10769 10771 10774 10776 10778 10778 10778 10779 10782 10784 10785 10785 10784 10785 10786 10785 10786 10787 10791 10795 10796 10795 10797 10798 10798 10798 10798 10800 10801 10801 10800 10799 10799 10800 10800 10797 10795 10794 10793 10793 10794 10793 10792 10789 10786 10784 10781 10778 10775 10770 10765 10761 10759 10757 10754 10751 10748 10745 10744 10741 10737 10732 10727 10721 10715 10708 10702 10697 10691 10683 10675
10719 10722 10726 10730 10733 10734 10735 10738 10742 10746 10750 10753 10753 10754 10760 10765 10767 10767 10768 10770 10770 10770 10772 10773 10773 10774 10775 10775 10776 10777 10778 10780 10782 10784 10786 10787 10786 10786 10786 10788 10790 10790 10789 10789 10790 10792 10793 10792 10792 10790 10787 10785 10783 10780 10779 10778 10778 10776 10773 10769 10766 10764 10762 10759 10754 10750 10751 10751 10748 10744 10742 10738 10736 10734 10730 10726 10721 10715 10709 10703 10698 10693 10688 10682 10676 10669
10710 10713 10718 10723 10726 10727 10728 10731 10735 10739 10741 10744 10745 10748 10755 10760 10761 10760 10760 10760 10760 10760 10763 10763 10762 10763 10766 10766 10767 10769 10772 10775 10777 10776 10777 10778 10778 10776 10774 10777 10781 10782 10781 10779 10778 10781 10784 10785 10783 10781 10778 10776 10773 10769 10767 10767 10766 10763 10759 10755 10752 10749 10746 10741 10736 10736 10739 10740 10737 10734 10732 10728 10725 10722 10719 10714 10709 10704 10699 10693 10688 10682 10676 10670 10664 10659
10700 10705 10710 10715 10718 10722 10724 10725 10726 10729 10733 10736 10738 10742 10748 10751 10752 10751 10750 10749 10749 10750 10751 10753 10754 10756 10757 10757 10759 10763 10765 10767 10769 10768 10767 10769 10771 10767 10765 10766 10769 10771 10771 10770 10769 10770 10773 10773 10773 10772 10770 10767 10764 10761 10759 10758 10756 10752 10748 10744 10740 10737 10733 10727 10723 10725 10729 10730 10727 10725 10722 10717 10713 10709 10706 10702 10697 10692 10686 10680 10674 10667 10661 10656 10652 10647
10691 10696 10702 10706 10708 10712 10716 10716 10716 10719 10723 10726 10729 10735 10740 10741 10740 10740 10739 10740 10740 10740 10741 10743 10746 10748 10749 10750 10752 10754 10756 10757 10760 10760 10759 10760 10761 10759 10756 10757 10758 10758 10759 10759 10758 10759 10761 10761 10761 10761 10760 10758 10756 10753 10751 10748 10745 10742 10738 10733 10729 10725 10721 10716 10713 10714 10717 10718 10716 10713 10709 10704 10700 10696 10690 10685 10680 10675 10669 10664 10659 10655 10651 10647 10642 10638
10683 10687 10692 10697 10699 10701 10705 10706 10708 10712 10716 10719 10721 10725 10728 10729 10729 10729 10730 10731 10732 10732 10733 10735 10737 10738 10739 10741 10743 10745 10745 10747 10750 10752 10752 10751 10751 10751 10750 10749 10749 10748 10747 10747 10747 10748 10749 10751 10750 10749 10748 10748 10746 10744 10741 10739 10738 10734 10729 10722 10717 10713 10710 10707 10705 10704 10704 10705 10703 10700 10695 10691 10687 10683 10677 10671 10666 10662 10658 10654 10651 10648 10644 10639 10634 10630
10675 10679 10684 10688 10690 10692 10696 10700 10702 10706 10709 10711 10712 10712 10715 10719 10720 10720 10721 10724 10725 10726 10727 10727 10728 10728 10727 10730 10734 10735 10734 10736 10739 10742 10743 10742 10740 10740 10740 10741 10741 10741 10739 10737 10737 10737 10738 10740 10740 10739 10738 10737 10735 10733 10731 10731 10731 10726 10717 10708 10704 10701 10699 10698 10697 10695 10694 10694 10693 10689 10685 10680 10676 10673 10669 10665 10660 10656 10652 10649 10645 10641 10636 10630 10625 10621
10667 10671 10677 10682 10683 10686 10690 10693 10695 10697 10701 10704 10704 10702 10704 10708 10709 10710 10715 10720 10720 10719 10717 10716 10716 10716 10717 10721 10725 10727 10725 10725 10728 10732 10734 10732 10730 10729 10731 10733 10734 10733 10730 10728 10727 10726 10727 10728 10728 10728 10728 10726 10725 10723 10721 10720 10720 10714 10704 10696 10694 10692 10690 10688 10687 10686 10684 10685 10684 10682 10678 10674 10670 10667 10664 10660 10656 10651 10646 10641 10637 10632 10626 10620 10616 10612